Location: M.A.R.S.Observatory
(35.4031°N, 81.5481°W)
Time: 17:59:30
(UTC-05:00)

SL-8 R/B - Visible Passes

Search period start: 11 December 2017 00:00
Search period end: 21 December 2017 00:00
Orbit: 657 x 667 km, 48.4° (Epoch: 10 December)

Date Brightness Start Highest point End Pass type
(mag) Time Alt. Az. Time Alt. Az. Time Alt. Az.
11 Dec 4.6 05:11:59 39° S 05:11:59 39° S 05:15:20 10° SSE visible
12 Dec 5.4 05:42:11 18° SW 05:42:11 18° SW 05:44:44 10° S visible
13 Dec 6.4 04:34:23 12° SSE 04:34:23 12° SSE 04:34:48 10° SSE visible
13 Dec 6.6 20:20:34 10° SW 20:20:46 11° SW 20:20:46 11° SW visible
14 Dec 5.1 19:10:02 10° S 19:12:58 24° SSE 19:12:58 24° SSE visible
15 Dec 5.9 18:02:23 10° SE 18:03:00 10° SE 18:03:36 10° ESE visible
15 Dec 4.8 19:40:04 10° SW 19:43:08 39° SSW 19:43:08 39° SSW visible
16 Dec 4.8 18:29:26 10° SSW 18:33:34 29° SE 18:35:13 23° E visible
16 Dec 5.8 20:11:13 10° WSW 20:13:14 24° W 20:13:14 24° W visible
17 Dec 3.6 18:59:34 10° SW 19:04:22 75° SE 19:05:16 57° ENE visible
17 Dec 6.8 20:43:07 10° W 20:43:16 11° W 20:43:16 11° W visible
18 Dec 4.8 17:48:50 10° SSW 17:53:04 31° SE 17:57:14 10° ENE visible
18 Dec 4.4 19:30:48 10° WSW 19:35:14 48° NW 19:35:14 48° NW visible
19 Dec 3.7 18:19:05 10° SW 18:23:54 80° SE 18:27:09 21° ENE visible
19 Dec 5.8 20:02:44 10° W 20:05:08 22° NW 20:05:08 22° NW visible
20 Dec 4.4 18:50:22 10° WSW 18:55:00 46° NNW 18:57:00 29° NNE visible
